Location: ?
(35.3436°N, 139.3168°E)
Time: 21:33:38
(UTC+00:00)

Cosmos 1627 Rocket - Pass Details

Date: 29 October 2020
Orbit: 950 x 1005 km, 82.9° (Epoch: 24 November)

Event Time Altitude Azimuth Distance (km) Brightness Sun altitude
Rises 19:22:04 0° 185° (S) 3,712 7.5 -20.9°
Reaches altitude 10° 19:24:35 10° 185° (S) 2,768 6.8 -20.4°
Maximum altitude 19:30:58 88° 274° (W) 1,010 4.5 -19.1°
Drops below altitude 10° 19:37:23 10° 6° (N) 2,777 6.9 -17.8°
Sets 19:39:55 0° 7° (N) 3,725 7.6 -17.3°
